x

8419317 - Wells, Me (welm1) Weather Station

8:00 - Sat 27th May 2017 All times are EDT. -4 hours from GMT.

  • Wind
    11mph, 13mph gusts
  • Ar Temp 51°f
  • Sea Pressure 1013.1mb
  • 8419317 - Wells, Me
  • 8419317 - Wells, Me

More Historic Weather Station data

Upgrade to MSW Pro to gain access to the past 30 days of data for over 8000 Wavebouys and Weather Stations around the globe.

Join Pro

Comparision Forecast

View Surf forecast
   
Sáb 05/27 8:00 11 13 mph 1013.1mb 51f
7:48 9 11 mph 1013mb 52f
7:42 9 11 mph 1013mb 52f
7:36 10 13 mph 1013mb 52f
7:30 10 14 mph 1013mb 52f
7:24 13 15 mph 1013mb 52f
7:18 10 15 mph 1012.9mb 52f
7:12 13 15 mph 1012.9mb 52f
7:06 15 17 mph 1012.9mb 52f
7:00 15 17 mph 1013mb 52f
6:48 16 18 mph 1013mb 52f
6:42 14 17 mph 1012.8mb 53f
6:36 14 17 mph 1012.8mb 53f
6:30 15 17 mph 1012.8mb 52f
6:24 15 17 mph 1012.8mb 52f
6:18 15 17 mph 1012.7mb 53f
6:12 16 17 mph 1012.6mb 52f
6:06 14 17 mph 1012.6mb 53f
6:00 15 17 mph 1012.6mb 53f
5:54 15 17 mph 1012.6mb 53f
5:48 14 16 mph 1012.5mb 53f
5:42 14 16 mph 1012.7mb 53f
5:36 13 15 mph 1012.6mb 53f
5:30 14 15 mph 1012.7mb 53f
5:24 11 15 mph 1012.6mb 54f
5:18 11 14 mph 1012.5mb 54f
5:12 11 14 mph 1012.5mb 54f
5:06 10 13 mph 1012.5mb 54f
5:00 10 13 mph 1012.5mb 54f
4:54 9 11 mph 1012.4mb 54f
4:48 10 11 mph 1012.4mb 54f
4:42 10 13 mph 1012.3mb 54f
4:36 11 13 mph 1012.3mb 54f
4:30 10 13 mph 1012.3mb 54f
4:24 10 14 mph 1012.3mb 54f
4:18 11 14 mph 1012.3mb 54f
4:12 11 15 mph 1012.3mb 54f
4:06 11 14 mph 1012.3mb 54f
4:00 11 15 mph 1012.4mb 54f
3:54 11 14 mph 1012.2mb 55f
3:48 11 14 mph 1012.3mb 55f
3:42 14 15 mph 1012.4mb 54f
3:36 11 14 mph 1012.3mb 54f
3:30 10 14 mph 1012.2mb 54f
3:24 11 14 mph 1012.2mb 54f
3:18 10 13 mph 1012.2mb 54f
3:12 11 14 mph 1012.1mb 54f
3:06 10 14 mph 1012.1mb 55f
3:00 13 14 mph 1012mb 54f
2:54 13 15 mph 1012mb 54f
2:48 11 14 mph 1011.9mb 54f
2:42 11 14 mph 1011.9mb 53f
2:36 10 11 mph 1011.8mb 54f
2:30 10 13 mph 1011.9mb 53f
2:24 9 11 mph 1011.8mb 54f
2:18 9 11 mph 1011.8mb 54f
2:12 8 10 mph 1011.8mb 54f
2:06 9 10 mph 1011.6mb 55f
2:00 8 11 mph 1011.6mb 55f
1:54 7 10 mph 1011.6mb 55f
1:48 8 10 mph 1011.6mb 55f
1:42 7 8 mph 1011.6mb 55f
1:36 7 8 mph 1011.6mb 55f
1:30 8 10 mph 1011.6mb 54f
1:24 7 9 mph 1011.6mb 55f
1:18 6 8 mph 1011.5mb 54f
1:12 6 8 mph 1011.4mb 55f
1:06 6 8 mph 1011.5mb 55f
1:00 7 8 mph 1011.5mb 55f
12:54 7 9 mph 1011.6mb 54f
12:48 7 8 mph 1011.5mb 55f
12:42 7 9 mph 1011.5mb 55f
12:36 8 10 mph 1011.5mb 54f
12:30 6 9 mph 1011.5mb 55f
12:24 8 9 mph 1011.5mb 55f
12:18 7 8 mph 1011.5mb 55f
12:12 6 9 mph 1011.5mb 55f
12:06 6 9 mph 1011.5mb 54f
12:00 7 11 mph 1011.5mb 54f
11:54 9 11 mph 1011.4mb 54f
11:48 7 9 mph 1011.5mb 54f
11:42 7 9 mph 1011.5mb 54f
11:36 7 10 mph 1011.5mb 54f
11:30 8 10 mph 1011.5mb 54f
11:24 8 10 mph 1011.4mb 54f
11:18 7 10 mph 1011.4mb 54f
11:12 7 9 mph 1011.3mb 54f
11:06 8 10 mph 1011.3mb 55f
11:00 7 10 mph 1011.2mb 54f
10:54 8 13 mph 1011.1mb 54f
10:48 9 11 mph 1011mb 53f
10:42 9 13 mph 1011mb 53f
10:36 9 13 mph 1011mb 52f
10:30 8 10 mph 1010.9mb 53f
10:24 9 13 mph 1010.8mb 53f
10:18 9 14 mph 1010.8mb 53f
10:12 9 14 mph 1010.8mb 53f
10:06 11 14 mph 1010.7mb 54f
10:00 8 13 mph 1010.7mb 58f
9:54 8 13 mph 1010.6mb 58f
9:48 9 13 mph 1010.6mb 58f
9:42 9 14 mph 1010.5mb 58f
9:36 6 13 mph 1010.4mb 58f
9:30 10 14 mph 1010.4mb 58f
9:24 10 13 mph 1010.5mb 58f
9:18 9 11 mph 1010.4mb 58f
9:12 7 11 mph 1010.5mb 58f
9:06 10 15 mph 1010.4mb 58f
9:00 11 20 mph 1010.3mb 58f
8:48 9 15 mph 1010.2mb 58f
8:42 10 17 mph 1010.1mb 58f
8:36 11 18 mph 1010.2mb 58f
8:30 9 13 mph 1010.2mb 58f
8:24 11 16 mph 1010.2mb 57f
8:18 9 13 mph 1010.2mb 57f
8:12 9 15 mph 1010.2mb 57f
8:06 11 15 mph 1010.2mb 56f
8:00 9 13 mph 1010.2mb 57f
7:54 7 10 mph 1010.2mb 56f
7:48 8 10 mph 1010.2mb 56f
7:42 8 10 mph 1010.2mb 56f
7:36 6 8 mph 1010.1mb 56f
7:30 7 10 mph 1010mb 55f
7:24 7 15 mph 1010.1mb 55f
7:18 7 15 mph 1010mb 55f
7:12 8 10 mph 1010mb 55f
7:06 7 10 mph 1010mb 55f
7:00 5 9 mph 1009.9mb 54f
6:54 6 8 mph 1009.9mb 54f
6:48 6 9 mph 1009.8mb 53f
6:42 7 10 mph 1009.7mb 53f
6:36 5 8 mph 1009.5mb 53f
6:30 3 7 mph 1009.5mb 52f
6:24 6 8 mph 1009.4mb 51f
6:18 3 7 mph 1009.4mb 51f
6:12 5 7 mph 1009.3mb 51f
6:06 3 6 mph 1009.3mb 51f
6:00 3 5 mph 1009.3mb 50f
5:54 2 3 mph 1009.3mb 50f
5:48 2 3 mph 1009.1mb 50f
5:42 2 3 mph 1008.9mb 50f
5:36 1 5 mph 1008.8mb 50f
5:30 2 3 mph 1008.7mb 50f
5:24 2 3 mph 1008.6mb 50f
5:18 2 3 mph 1008.5mb 50f
5:12 3 5 mph 1008.5mb 50f
5:06 3 6 mph 1008.4mb 50f
5:00 2 5 mph 1008.5mb 50f
4:54 3 5 mph 1008.5mb 50f
4:48 3 5 mph 1008.5mb 50f
4:42 3 5 mph 1008.4mb 50f
4:36 3 3 mph 1008.4mb 50f
4:30 2 3 mph 1008.5mb 50f
4:24 2 2 mph 1008.4mb 51f
4:18 2 2 mph 1008.4mb 51f
4:12 2 2 mph 1008.3mb 51f
4:06 1 2 mph 1008.2mb 51f
4:00 2 2 mph 1008.2mb 51f
3:54 2 3 mph 1008.1mb 51f
3:48 2 3 mph 1008.2mb 51f
3:42 2 2 mph 1008.2mb 51f
3:36 2 3 mph 1008.2mb 51f
3:30 2 5 mph 1008.2mb 51f
3:24 5 7 mph 1008.2mb 52f
3:18 6 7 mph 1008.3mb 52f
3:12 6 8 mph 1008.2mb 51f
3:06 6 14 mph 1008.2mb 52f
3:00 6 9 mph 1008.1mb 52f
2:54 6 8 mph 1008mb 52f
2:48 6 9 mph - -
2:42 6 8 mph - -
2:36 6 8 mph - -
2:30 5 8 mph 1007.7mb 52f
2:24 5 7 mph 1007.7mb 52f
2:18 5 7 mph 1007.6mb 52f
2:12 5 8 mph 1007.6mb 52f
2:06 5 7 mph 1007.5mb 52f
2:00 5 7 mph 1007.4mb 52f
1:54 3 6 mph 1007.4mb 52f
1:48 3 7 mph 1007.4mb 52f
1:42 6 7 mph 1007.4mb 52f
1:36 6 7 mph 1007.4mb 52f
1:30 6 7 mph 1007.4mb 52f
1:24 6 7 mph 1007.4mb 52f
1:18 5 7 mph 1007.3mb 52f
1:12 6 7 mph 1007.3mb 52f
1:06 6 7 mph 1007.3mb 52f
1:00 6 8 mph 1007.3mb 52f
12:54 6 8 mph 1007.3mb 52f
12:48 5 8 mph 1007.3mb 52f
12:42 6 9 mph 1007.3mb 52f
12:36 6 9 mph 1007.2mb 52f
12:30 5 8 mph 1007.1mb 52f
12:24 5 7 mph 1007.1mb 52f
12:18 5 7 mph 1007.1mb 52f
12:12 5 7 mph 1007.1mb 52f
12:06 3 6 mph 1007mb 52f
12:00 6 7 mph 1007mb 52f
Sex 05/26 11:54 5 7 mph 1007mb 52f
11:48 5 6 mph 1007mb 52f
11:42 3 6 mph 1007.1mb 52f
11:36 2 3 mph 1007.1mb 52f
11:30 3 5 mph 1007mb 52f
11:24 3 6 mph 1007mb 52f
11:18 5 6 mph 1007mb 52f
11:12 6 7 mph 1007mb 53f
11:06 5 6 mph 1006.8mb 53f
11:00 5 6 mph 1006.6mb 53f
10:54 5 6 mph 1006.6mb 52f
10:48 5 7 mph 1006.7mb 53f
10:42 6 7 mph 1006.6mb 53f
10:36 6 9 mph 1006.5mb 53f
10:30 7 8 mph 1006.3mb 53f
10:24 7 8 mph 1006.2mb 53f
10:18 6 8 mph 1006.1mb 53f
10:12 7 9 mph 1006mb 53f
10:06 6 8 mph 1006.1mb 53f
10:00 6 8 mph 1006mb 53f
9:54 7 9 mph 1005.9mb 53f
9:48 6 7 mph 1005.8mb 53f
9:42 5 7 mph 1005.8mb 53f
9:36 6 7 mph 1005.8mb 53f
9:30 6 7 mph 1005.8mb 53f
9:24 6 8 mph 1005.7mb 53f
9:18 8 10 mph 1005.6mb 53f
9:12 7 9 mph 1005.5mb 53f
9:06 8 11 mph 1005.4mb 53f
9:00 8 9 mph 1005.2mb 53f
8:54 6 9 mph 1005.2mb 53f
8:48 6 9 mph 1005.1mb 53f
8:42 7 9 mph 1005.1mb 53f
8:36 6 8 mph 1005mb 53f
8:30 7 9 mph 1004.9mb 53f
8:24 8 11 mph 1004.8mb 54f
8:18 10 14 mph 1004.8mb 54f
8:12 8 13 mph 1004.7mb 54f
8:06 9 14 mph 1004.7mb 54f
8:00 11 15 mph 1004.6mb 54f
7:54 13 16 mph 1004.4mb 55f
7:48 11 15 mph 1004.4mb 55f
7:42 11 15 mph 1004.3mb 55f
7:36 9 17 mph 1004.2mb 55f
7:30 9 13 mph 1004.1mb 55f
7:24 9 13 mph 1004mb 55f
7:18 10 13 mph 1003.9mb 55f
7:12 10 15 mph 1003.9mb 55f
7:06 10 13 mph 1003.8mb 55f
7:00 13 17 mph 1003.6mb 55f
6:54 13 16 mph 1003.5mb 55f
6:48 11 14 mph 1003.5mb 55f
6:42 9 14 mph 1003.5mb 55f
6:36 10 15 mph 1003.4mb 55f
6:30 9 14 mph 1003.2mb 55f
6:24 9 14 mph 1003mb 55f
6:18 11 15 mph 1002.9mb 55f
6:12 10 14 mph 1002.7mb 55f
6:06 11 14 mph 1002.5mb 55f
6:00 11 15 mph 1002.4mb 55f
5:54 15 18 mph 1002.5mb 55f
5:48 15 17 mph 1002.4mb 55f
5:42 11 17 mph 1002.4mb 55f
5:36 15 21 mph 1002.2mb 55f
5:30 11 14 mph 1002.2mb 55f
5:24 8 13 mph 1002.2mb 55f
5:18 9 14 mph 1002.1mb 56f
5:12 13 15 mph 1001.9mb 55f
5:06 13 15 mph 1001.8mb 56f
5:00 11 17 mph 1001.8mb 56f
4:54 14 18 mph 1001.7mb 56f
4:48 8 11 mph 1001.6mb 56f
4:42 8 13 mph 1001.6mb 56f
4:36 10 15 mph 1001.6mb 56f
4:30 10 13 mph 1001.4mb 55f
4:24 8 13 mph 1001.5mb 55f
4:18 9 13 mph 1001.4mb 55f
4:12 8 11 mph 1001.3mb 55f
4:06 9 16 mph 1001.2mb 55f
4:00 13 16 mph 1001.1mb 55f
3:54 8 11 mph 1001mb 55f
3:48 9 14 mph 1000.9mb 55f
3:42 10 14 mph 1000.7mb 55f
3:36 11 15 mph 1000.7mb 55f
3:30 11 15 mph 1000.7mb 55f
3:24 10 17 mph 1000.7mb 55f
3:18 13 15 mph 1000.6mb 55f
3:12 10 14 mph 1000.6mb 55f
3:06 10 18 mph 1000.6mb 55f
3:00 14 21 mph 1000.4mb 55f
2:54 13 15 mph 1000.4mb 55f
2:48 9 15 mph 1000.3mb 55f
2:42 13 15 mph 1000.3mb 54f
2:36 9 15 mph 1000.2mb 54f
2:30 14 15 mph 1000.2mb 54f
2:24 13 16 mph 1000.2mb 54f
2:18 14 18 mph 1000.1mb 54f
2:12 10 14 mph 1000mb 54f
2:06 9 14 mph 999.9mb 53f
2:00 13 15 mph 999.9mb 53f
1:54 11 13 mph 999.9mb 53f
1:48 10 13 mph 999.9mb 53f
1:42 9 13 mph 999.9mb 53f
1:36 9 15 mph 999.8mb 53f
1:30 13 16 mph 999.7mb 53f
1:24 13 15 mph 999.6mb 52f
1:18 13 16 mph 999.7mb 52f
1:12 11 16 mph 999.7mb 52f
1:06 10 14 mph 999.7mb 52f
1:00 10 15 mph 999.6mb 52f
12:54 11 14 mph 999.6mb 52f
12:48 10 13 mph 999.7mb 51f
12:42 9 11 mph 999.7mb 51f
12:36 8 13 mph 999.6mb 51f
12:30 8 13 mph 999.6mb 51f
12:24 11 15 mph 999.6mb 51f
12:18 14 20 mph 999.6mb 51f
12:12 8 13 mph 999.5mb 51f
12:06 9 13 mph 999.4mb 51f
12:00 11 17 mph 999.3mb 51f
11:54 13 17 mph 999.3mb 51f
11:48 11 16 mph 999.2mb 51f
11:42 10 13 mph 999.2mb 51f
11:36 10 15 mph 999.2mb 51f
11:30 14 17 mph 999.1mb 51f
11:24 11 16 mph 999.1mb 51f
11:18 10 14 mph 999.1mb 51f
11:12 13 16 mph 999.1mb 51f
11:06 13 18 mph 999.1mb 51f
11:00 10 16 mph 999.2mb 51f
10:54 8 15 mph 999.2mb 51f
10:48 13 17 mph 999.1mb 50f
10:42 10 14 mph 999.1mb 50f
10:36 13 16 mph 999mb 50f
10:30 14 18 mph 999mb 50f
10:24 14 16 mph 999mb 50f
10:18 13 16 mph 998.9mb 50f
10:12 11 15 mph 998.9mb 50f
10:06 13 16 mph 998.9mb 50f
10:00 13 18 mph 998.9mb 50f
9:54 15 21 mph 998.9mb 49f
9:48 13 17 mph 998.9mb 49f
9:42 13 18 mph 998.9mb 49f
9:36 11 20 mph 998.9mb 49f
9:30 11 20 mph 998.9mb 49f
9:24 14 17 mph 999mb 49f
9:18 14 17 mph 999mb 49f
9:12 15 23 mph 998.9mb 49f
9:06 17 22 mph 998.9mb 49f
9:00 14 18 mph 999mb 49f
8:54 15 21 mph 998.9mb 49f
8:48 15 21 mph 998.9mb 49f
8:42 15 21 mph 999.1mb 49f
8:36 13 20 mph 999.3mb 49f
8:30 14 22 mph 999.4mb 49f
8:24 14 20 mph 999.5mb 49f
8:18 14 18 mph 999.6mb 49f
8:12 16 21 mph 999.7mb 49f
8:06 14 16 mph 999.8mb 49f
8:00 13 20 mph 1000mb 49f
7:54 14 20 mph 1000mb 49f
7:48 11 15 mph 999.9mb 49f
7:42 13 17 mph 999.8mb 49f
7:36 16 22 mph 999.8mb 49f
7:30 13 24 mph 999.9mb 49f
7:24 16 23 mph 999.8mb 49f
7:18 13 21 mph 1000mb 49f
7:12 15 22 mph 1000.1mb 49f
7:06 20 26 mph 999.9mb 49f
7:00 14 25 mph 999.8mb 49f
6:54 14 24 mph 999.8mb 49f
6:48 20 25 mph 999.8mb 49f
6:42 16 21 mph 999.8mb 49f
6:36 16 22 mph 999.9mb 49f
6:30 15 26 mph 1000mb 49f
6:24 16 23 mph 999.9mb 49f
6:18 21 25 mph 999.7mb 49f
6:12 17 22 mph 999.6mb 49f
6:06 15 21 mph 999.9mb 48f
6:00 15 21 mph 1000.2mb 48f
5:54 16 24 mph 999.9mb 48f
5:48 22 28 mph 999.8mb 48f
5:42 17 28 mph 999.7mb 48f
5:36 22 31 mph 999.6mb 48f
5:30 24 33 mph 999.6mb 48f
5:24 21 28 mph 1000.1mb 48f
5:18 20 31 mph 1000.4mb 48f
5:12 23 28 mph 1000.3mb 48f
5:06 21 25 mph 1001.9mb 48f
5:00 16 24 mph 1001.9mb 48f
4:54 17 25 mph 1001.6mb 48f
4:48 17 24 mph 1001.6mb 48f
4:42 21 30 mph 1001.7mb 48f
4:36 16 28 mph 1001.8mb 48f
4:30 21 25 mph 1001.4mb 48f
4:24 16 28 mph 1001.8mb 48f
4:18 20 25 mph 1001.7mb 48f
4:12 20 25 mph 1001.7mb 48f
4:06 16 23 mph 1002.2mb 48f
4:00 20 25 mph 1002.1mb 48f
3:54 17 23 mph 1002.5mb 48f
3:48 16 25 mph 1002.8mb 48f
3:42 17 23 mph 1002.7mb 48f
3:36 15 24 mph 1002.8mb 48f
3:30 16 23 mph 1002.5mb 48f
3:24 16 23 mph 1002.5mb 48f
3:18 17 23 mph 1002.8mb 48f
3:12 11 21 mph 1003.1mb 48f
3:06 16 20 mph 1002.9mb 48f
3:00 14 16 mph 1003.2mb 48f
2:54 9 14 mph 1003.7mb 48f
2:48 6 13 mph 1004.2mb 48f
2:42 7 23 mph 1003.8mb 48f
2:36 18 24 mph 1002.2mb 48f
2:30 18 28 mph 1002.2mb 48f
2:24 15 25 mph 1002.1mb 48f
2:18 18 29 mph 1002mb 48f
2:12 17 25 mph 1001.9mb 48f
2:06 20 26 mph 1002.1mb 48f
2:00 17 23 mph 1002.4mb 48f
1:54 16 23 mph 1002.6mb 48f
1:48 20 26 mph 1002.6mb 48f
1:42 18 26 mph 1003.2mb 48f
1:36 18 28 mph 1003.5mb 48f
1:30 16 24 mph 1003.4mb 48f
1:24 17 22 mph 1003.4mb 49f
1:18 16 21 mph 1003.6mb 49f
1:12 18 24 mph 1003.7mb 49f
1:06 16 24 mph 1003.9mb 49f
1:00 17 23 mph 1003.7mb 49f
12:54 15 20 mph 1004.2mb 49f
12:48 16 21 mph 1004.3mb 49f
12:42 14 20 mph 1004.8mb 49f
12:36 17 21 mph 1005.1mb 49f
12:30 15 22 mph 1005.3mb 49f
12:24 14 21 mph 1005.4mb 49f
12:18 14 20 mph 1005.6mb 49f
12:12 11 21 mph 1005.8mb 49f
12:06 15 23 mph 1005.8mb 49f
12:00 15 22 mph 1005.7mb 49f
Qui 05/25 11:54 17 22 mph 1005.8mb 49f
11:48 13 18 mph 1006.2mb 49f
11:42 13 17 mph 1006.3mb 49f
11:36 14 22 mph 1006.1mb 49f
11:30 15 21 mph 1006.4mb 49f
11:24 11 21 mph 1006.7mb 49f
11:18 14 20 mph 1006.8mb 49f
11:12 16 23 mph 1006.9mb 49f
11:06 14 23 mph 1007mb 49f
11:00 16 23 mph 1007.2mb 49f
10:54 14 18 mph 1007.4mb 50f
10:48 13 17 mph 1007.7mb 50f
10:42 14 20 mph 1007.8mb 50f
10:36 15 20 mph 1007.7mb 50f
10:30 16 23 mph 1007.6mb 50f
10:24 16 20 mph 1007.8mb 50f
10:18 13 18 mph 1008mb 50f
10:12 14 20 mph 1008mb 50f
10:06 13 21 mph 1008.1mb 50f
10:00 15 21 mph 1008.2mb 50f
9:54 14 18 mph 1008.3mb 50f
9:48 14 23 mph 1008.4mb 50f
9:42 15 24 mph 1008.4mb 50f
9:36 14 18 mph 1008.5mb 50f
9:30 11 16 mph 1009.1mb 50f
9:24 14 21 mph 1009.1mb 50f
9:18 15 22 mph 1008.7mb 50f
9:12 15 21 mph 1008.6mb 50f
9:06 15 20 mph 1008.7mb 50f
9:00 15 20 mph 1008.6mb 50f
8:54 11 21 mph 1008.5mb 50f
8:48 14 23 mph 1008.5mb 49f
8:42 16 25 mph 1008.5mb 49f
8:36 15 25 mph 1008.6mb 49f
8:30 18 26 mph 1008.5mb 49f
8:24 17 24 mph 1008.8mb 49f
8:18 15 23 mph 1009.2mb 49f
8:12 15 22 mph 1009.2mb 49f
8:06 17 28 mph 1008.7mb 49f
8:00 20 29 mph 1008.4mb 49f
7:54 20 28 mph 1008.4mb 49f
7:48 22 28 mph 1008.4mb 49f
7:42 18 23 mph 1008.1mb 49f
7:36 17 26 mph 1008.2mb 49f
7:30 22 30 mph 1008.2mb 49f
7:24 21 33 mph 1008.3mb 49f
7:18 23 33 mph 1008.3mb 49f
7:12 22 30 mph 1008.3mb 49f
7:06 22 29 mph 1008mb 49f
7:00 22 30 mph 1007.6mb 49f
6:54 20 29 mph 1007.5mb 50f
6:48 21 28 mph 1007.9mb 50f
6:42 22 30 mph 1008mb 50f
6:36 21 30 mph 1008.2mb 50f
6:30 23 32 mph 1008.3mb 50f
6:24 21 29 mph 1008.4mb 50f
6:18 20 29 mph 1008.7mb 50f
6:12 18 25 mph 1008.7mb 49f
6:06 22 30 mph 1008.6mb 49f
6:00 17 26 mph 1008.8mb 49f
5:54 22 31 mph 1008.9mb 49f
5:48 20 25 mph 1009.1mb 49f
5:42 20 26 mph 1009.2mb 49f
5:36 20 29 mph 1009.2mb 50f
5:30 20 29 mph 1009.4mb 49f
5:24 18 26 mph 1009.5mb 50f
5:18 21 30 mph 1009.5mb 50f
5:12 16 25 mph 1009.6mb 50f
5:06 18 24 mph 1009.7mb 50f
5:00 16 25 mph 1009.7mb 50f
4:54 20 29 mph 1009.7mb 50f
4:48 21 33 mph 1009.6mb 50f
4:42 21 25 mph 1009.8mb 50f
4:36 17 26 mph 1009.9mb 50f
4:30 18 24 mph 1010mb 50f
4:24 16 23 mph 1010.2mb 50f
4:18 17 26 mph 1010.4mb 51f
4:12 21 31 mph 1010.4mb 51f
4:06 21 26 mph 1010.4mb 51f
4:00 21 29 mph 1010.3mb 51f
3:54 15 23 mph 1010.6mb 51f
3:48 16 23 mph 1010.7mb 51f
3:42 18 23 mph 1010.7mb 51f
3:36 14 25 mph 1010.8mb 51f
3:30 17 23 mph 1010.8mb 52f
3:24 16 24 mph 1011mb 52f
3:18 15 22 mph 1011.1mb 53f
3:12 16 28 mph 1011.2mb 53f
3:06 15 22 mph 1011.3mb 53f
3:00 15 22 mph 1011.4mb 53f
2:54 17 25 mph 1011.4mb 53f
2:48 15 20 mph 1011.2mb 53f
2:42 15 21 mph 1011.3mb 53f
2:36 11 18 mph 1011.4mb 53f
2:30 15 20 mph 1011.4mb 53f
2:24 14 23 mph 1011.5mb 53f
2:18 14 20 mph 1011.5mb 53f
2:12 14 22 mph 1011.5mb 53f
2:06 15 20 mph 1011.5mb 53f
2:00 14 22 mph 1011.6mb 53f
1:54 13 22 mph 1011.7mb 53f
1:48 14 18 mph 1011.9mb 53f
1:42 15 20 mph 1012.1mb 53f
1:36 15 20 mph 1012.2mb 53f
1:30 14 21 mph 1012.2mb 53f
1:24 15 20 mph 1012.2mb 53f
1:18 16 22 mph 1012.1mb 53f
1:12 15 23 mph 1012.2mb 53f
1:06 17 22 mph 1012.1mb 53f
1:00 17 22 mph 1012.2mb 53f
12:54 18 23 mph 1012mb 54f
12:48 16 22 mph 1012mb 54f
12:42 16 24 mph 1012mb 54f
12:36 16 25 mph 1012.1mb 54f
12:30 16 22 mph 1012.1mb 54f
12:24 16 22 mph 1012.2mb 54f
12:18 17 21 mph 1012.3mb 54f
12:12 16 22 mph 1012.4mb 54f
12:06 16 20 mph 1012.3mb 55f
12:00 16 20 mph 1012.2mb 55f
11:54 14 21 mph 1012.4mb 55f
11:48 17 22 mph 1012.4mb 55f
11:42 14 20 mph 1012.5mb 55f
11:36 16 20 mph 1012.5mb 55f
11:30 16 20 mph 1012.6mb 55f
11:24 15 22 mph 1012.6mb 55f
11:18 16 21 mph 1012.7mb 55f
11:12 17 21 mph 1012.8mb 55f
11:06 17 21 mph 1012.8mb 55f
11:00 13 18 mph 1012.9mb 55f
10:54 14 18 mph 1012.8mb 55f
10:48 13 20 mph 1012.9mb 55f
10:42 15 18 mph 1012.9mb 55f
10:36 14 17 mph 1013.2mb 55f
10:30 14 16 mph 1013.2mb 55f
10:24 11 17 mph 1013.2mb 55f
10:18 13 15 mph 1013.2mb 55f
10:12 13 15 mph 1013.3mb 55f
10:06 11 16 mph 1013.2mb 55f
10:00 11 15 mph 1013.2mb 55f
9:54 13 15 mph 1013.3mb 55f
9:48 11 16 mph 1013.3mb 55f
9:42 11 15 mph 1013.3mb 55f
9:36 10 14 mph 1013.3mb 55f
9:30 13 14 mph 1013.3mb 55f
9:24 10 14 mph 1013.3mb 55f
9:18 10 14 mph 1013.2mb 55f
9:12 10 13 mph 1013.3mb 55f
9:06 8 11 mph 1013.3mb 55f
9:00 9 13 mph 1013.4mb 55f
8:54 10 13 mph 1013.4mb 55f
8:48 8 9 mph 1013.5mb 55f
8:42 7 10 mph 1013.6mb 55f
8:36 8 10 mph 1013.6mb 55f
8:30 8 9 mph 1013.6mb 55f
8:24 7 9 mph 1013.6mb 54f
8:18 6 8 mph 1013.6mb 54f
8:12 6 8 mph 1013.6mb 54f
8:06 6 7 mph 1013.6mb 54f
8:00 5 7 mph 1013.5mb 53f
7:54 5 6 mph 1013.6mb 53f
7:48 3 5 mph 1013.6mb 52f
7:42 3 5 mph 1013.6mb 52f
7:36 5 6 mph 1013.6mb 52f
7:30 5 6 mph 1013.6mb 52f
7:24 5 6 mph 1013.6mb 51f
7:18 5 5 mph 1013.6mb 51f
7:12 3 5 mph 1013.6mb 51f
7:06 3 5 mph 1013.7mb 51f
7:00 5 5 mph 1013.6mb 51f
6:54 5 6 mph 1013.5mb 50f
6:48 5 6 mph 1013.4mb 50f
6:42 3 5 mph 1013.3mb 49f
6:36 5 5 mph 1013.3mb 49f
6:30 5 5 mph 1013.3mb 49f
6:24 5 6 mph 1013.4mb 49f
6:18 5 6 mph 1013.4mb 49f
6:12 6 6 mph 1013.2mb 49f
6:06 6 6 mph 1013.3mb 48f
6:00 6 6 mph 1013.2mb 48f
5:54 5 5 mph 1013.1mb 48f
5:48 3 5 mph 1013.1mb 48f
5:42 2 2 mph 1013.1mb 47f
5:36 2 2 mph 1013.1mb 47f
5:30 2 2 mph 1013mb 47f
5:24 1 1 mph 1012.8mb 47f
5:18  -  0 mph 1012.9mb 47f
5:12  -  1 mph 1012.9mb 47f
5:06 1 1 mph 1012.8mb 47f
5:00 1 1 mph 1012.8mb 47f
4:54 1 1 mph 1012.7mb 47f
4:48 2 2 mph 1012.5mb 47f
4:42  -  1 mph 1012.2mb 47f
4:36  -  1 mph 1012.3mb 47f
4:30  -  1 mph 1012.3mb 47f
4:24 1 2 mph 1012.2mb 47f
4:18 1 1 mph 1012.1mb 47f
4:12 2 2 mph 1012mb 47f
4:06 2 2 mph 1011.9mb 47f
4:00 2 3 mph 1011.9mb 47f
3:54 2 3 mph 1011.8mb 47f
3:48 2 3 mph 1011.9mb 48f
3:42 3 3 mph 1011.9mb 48f
3:36 2 2 mph 1012mb 49f
3:30 1 2 mph 1012mb 48f
3:24 2 2 mph 1012.1mb 48f
3:18 1 2 mph 1012mb 48f
3:12 1 3 mph 1012.1mb 48f
3:06 3 3 mph 1012.1mb 48f
3:00 3 5 mph 1012.1mb 48f
2:54 3 5 mph 1012mb 48f
2:48 3 3 mph 1012.1mb 48f
2:42 3 3 mph 1012.2mb 48f
2:36 2 2 mph 1012.2mb 48f
2:30 2 3 mph 1012.2mb 48f
2:24 3 3 mph 1012.3mb 48f
2:18 2 2 mph 1012.4mb 48f
2:12 2 3 mph 1012.5mb 48f
2:06 3 3 mph 1012.6mb 48f
2:00 3 3 mph 1012.7mb 48f
1:54 1 2 mph 1012.7mb 48f
1:48 2 2 mph 1012.7mb 48f
1:42 2 2 mph 1012.9mb 48f
1:36 2 3 mph 1012.8mb 48f
1:30 3 3 mph 1012.7mb 48f
1:24 2 2 mph 1012.7mb 48f
1:18  -  1 mph 1012.5mb 49f
1:12  -  1 mph 1012.6mb 49f
1:06  -  1 mph 1012.6mb 49f
1:00 2 2 mph 1012.6mb 49f
12:54 1 1 mph 1012.6mb 49f
12:48 1 1 mph 1012.7mb 50f
12:42  -  0 mph 1012.7mb 50f
12:36  -  0 mph 1012.6mb 50f
12:30  -  0 mph 1012.6mb 50f
12:24  -  1 mph 1012.5mb 50f
12:18  -  1 mph 1012.5mb 50f
12:12 2 2 mph 1012.5mb 50f
12:06 2 2 mph 1012.3mb 50f
12:00 2 3 mph 1012.2mb 50f
Qua 05/24 11:54 3 3 mph 1012.1mb 50f
11:48 2 2 mph 1012.2mb 50f
11:42 2 2 mph 1012mb 50f
11:36 1 2 mph 1012mb 50f
11:30 2 3 mph 1012.1mb 50f
11:24 2 3 mph 1012.1mb 51f
11:18 2 2 mph 1012.2mb 51f
11:12 2 2 mph 1012.1mb 51f
11:06 1 2 mph 1012.2mb 51f
11:00  -  1 mph 1012.3mb 52f
10:54  -  1 mph 1012.5mb 52f
10:48  -  2 mph 1012.4mb 52f
10:42 1 1 mph 1012.5mb 52f
10:36 1 1 mph 1012.5mb 52f
10:30  -  1 mph 1012.4mb 52f
10:24  -  1 mph 1012.3mb 52f
10:18  -  1 mph 1012.2mb 52f
10:12  -  1 mph 1012.1mb 52f
10:06  -  1 mph 1012.2mb 52f
10:00  -  2 mph 1012.1mb 53f
9:54 2 2 mph 1012mb 53f
9:48 2 2 mph 1012mb 53f
9:42 1 2 mph 1011.8mb 53f
9:36  -  1 mph 1011.6mb 53f
9:30  -  2 mph 1011.5mb 54f
9:24 2 3 mph 1011.6mb 54f
9:18 3 5 mph 1011.6mb 54f
9:12 6 7 mph 1011.6mb 54f
9:06 5 6 mph 1011.4mb 54f
9:00 5 6 mph 1011.3mb 54f
8:54 6 8 mph 1011.2mb 54f
8:48 7 9 mph 1011.1mb 55f
8:42 8 8 mph 1011mb 55f
8:36 6 8 mph 1010.8mb 55f
8:30 7 9 mph 1010.8mb 55f
8:24 8 9 mph 1010.9mb 55f
8:18 7 9 mph 1010.8mb 55f
8:12 7 8 mph 1010.6mb 55f
8:06 6 8 mph 1010.6mb 55f
8:00 7 9 mph 1010.6mb 55f
7:54 7 9 mph 1010.7mb 55f
7:48 8 9 mph 1010.7mb 55f
7:42 7 9 mph 1010.4mb 56f
7:36 6 7 mph 1010.2mb 56f
7:30 6 6 mph 1010.2mb 56f
7:24 5 6 mph 1010.1mb 56f
7:18 3 6 mph 1010mb 57f
7:12 5 6 mph 1010mb 57f
7:06 5 6 mph 1010mb 57f
7:00 3 6 mph 1010.1mb 57f
6:54 2 5 mph 1010.1mb 56f
6:48 3 5 mph 1010.1mb 56f
6:42 3 5 mph 1010.3mb 57f
6:36 3 3 mph 1010.5mb 58f
6:30 2 2 mph 1010.4mb 58f
6:24 2 3 mph 1010.6mb 56f
6:18 2 5 mph 1010.4mb 56f
6:12 3 5 mph 1010.4mb 56f
6:06 5 5 mph 1010.2mb 56f
6:00 3 5 mph 1010.3mb 58f
5:54 5 6 mph 1010.2mb 58f
5:48 3 5 mph 1010.3mb 58f
5:42 3 6 mph 1010.3mb 57f
5:36 3 5 mph 1010.2mb 57f
5:30 5 6 mph 1010.3mb 57f
5:24 5 6 mph 1010.4mb 56f
5:18 5 6 mph 1010.3mb 57f
5:12 6 7 mph 1010.1mb 57f
5:06 6 7 mph 1010.1mb 57f
5:00 6 7 mph 1010.1mb 57f
4:54 5 6 mph 1009.8mb 57f
4:48 3 5 mph 1009.6mb 57f
4:42 3 5 mph 1009.4mb 57f
4:36 3 5 mph 1009.3mb 58f
4:30 3 5 mph 1009.2mb 57f
4:24 2 3 mph 1009.2mb 56f
4:18 3 3 mph 1009mb 56f
4:12 1 2 mph 1008.9mb 56f
4:06 2 3 mph 1009mb 56f
4:00 2 6 mph 1009.1mb 56f
3:54 3 5 mph 1009.2mb 56f
3:48 3 5 mph 1009.6mb 56f
3:42 3 6 mph 1009.5mb 56f
3:36 5 6 mph 1009.3mb 55f
3:30 3 5 mph 1009.4mb 55f
3:24 3 5 mph 1009.3mb 55f
3:18 5 6 mph 1009.3mb 55f
3:12 2 3 mph 1009.5mb 56f
3:06 3 6 mph 1009.5mb 55f
3:00 2 5 mph 1009.6mb 56f
2:54 5 6 mph 1009.6mb 56f
2:48 3 5 mph 1009.7mb 57f
2:42 3 6 mph 1009.8mb 57f
2:36 5 6 mph 1009.8mb 57f
2:30 2 5 mph 1010mb 57f
2:24 2 6 mph 1010.1mb 56f
2:18 3 8 mph 1009.9mb 56f
2:12 5 7 mph 1009.8mb 56f
2:06 6 6 mph 1009.8mb 56f
2:00 3 8 mph 1009.6mb 56f
1:54 2 8 mph 1009.7mb 56f
1:48 5 6 mph 1009.8mb 56f
1:42 6 8 mph 1009.6mb 55f
1:36 6 8 mph 1009.6mb 56f
1:30 5 9 mph 1009.6mb 56f
1:24 6 8 mph 1009.9mb 56f
1:18 6 9 mph 1009.7mb 56f
1:12 6 8 mph 1009.7mb 56f
1:06 5 8 mph 1009.6mb 56f
1:00 7 9 mph 1009.5mb 56f
12:54 7 9 mph 1009.4mb 56f
12:48 8 10 mph 1009.5mb 56f
12:42 6 9 mph 1009.6mb 57f
12:36 7 10 mph 1009.7mb 58f
12:30 7 10 mph 1009.7mb 58f
12:24 9 13 mph 1009.7mb 58f
12:18 10 15 mph 1009.8mb 57f
12:12 11 14 mph 1009.8mb 57f
12:06 8 11 mph 1009.8mb 58f
12:00 8 10 mph 1009.8mb 58f
11:54 6 9 mph 1009.7mb 60f
11:48 6 8 mph 1009.6mb 60f
11:42 7 9 mph 1009.5mb 60f
11:36 6 7 mph 1009.5mb 61f
11:30 6 8 mph 1009.5mb 61f
11:24 7 8 mph 1009.5mb 60f
11:18 6 7 mph 1009.5mb 59f
11:12 6 6 mph 1009.4mb 60f
11:06 6 7 mph 1009.3mb 59f
11:00 5 6 mph 1009.2mb 61f
10:54 5 6 mph 1009.2mb 60f
10:48 5 7 mph 1009.3mb 60f
10:42 6 7 mph 1009.2mb 60f
10:36 6 6 mph 1009.2mb 60f
10:30 5 7 mph 1009.2mb 61f
10:24 3 6 mph 1009.2mb 62f
10:18 6 7 mph 1009.1mb 62f
10:12 3 5 mph 1009mb 62f
10:06 5 7 mph 1009mb 62f
10:00 6 9 mph 1009mb 61f
9:54 3 6 mph 1009.1mb 61f
9:48 5 8 mph 1009.1mb 61f
9:42 6 7 mph 1008.9mb 60f
9:36 6 8 mph 1009mb 60f
9:30 6 7 mph 1009mb 60f
9:24 5 5 mph 1009.2mb 59f
9:18 5 6 mph 1009.2mb 59f
9:12 5 7 mph 1009.2mb 58f
9:06 6 7 mph 1009.2mb 58f
9:00 6 7 mph 1009.2mb 58f
8:54 6 7 mph 1009.2mb 57f
8:48 3 5 mph 1009.2mb 56f
8:42 3 6 mph 1009.2mb 56f
8:36 3 6 mph 1009.2mb 56f
8:30 5 7 mph 1009.1mb 56f
8:24 6 7 mph 1009.1mb 55f
8:18 6 8 mph 1009.1mb 55f
8:12 5 6 mph 1009.1mb 55f
8:06 6 8 mph 1009mb 54f
8:00 7 8 mph 1009mb 54f
7:54 7 8 mph 1009mb 54f
7:48 6 8 mph 1009.1mb 54f
7:42 6 8 mph 1009.1mb 54f
7:36 8 9 mph 1009.1mb 54f
7:30 7 8 mph 1009.1mb 54f
7:24 7 9 mph 1009.1mb 54f
7:18 8 8 mph 1009.1mb 54f
7:12 7 8 mph 1009.1mb 54f
7:06 8 9 mph 1009mb 53f
7:00 7 9 mph 1009.1mb 53f
6:54 7 8 mph 1009.1mb 53f
6:48 6 7 mph 1009.1mb 53f
6:42 6 8 mph 1009mb 53f
6:36 6 8 mph 1009mb 53f
6:30 5 6 mph 1008.8mb 52f
6:24 6 6 mph 1008.7mb 52f
6:18 5 6 mph 1008.8mb 51f
6:12 3 5 mph 1008.8mb 51f
6:06 3 5 mph 1008.7mb 51f
6:00 2 2 mph 1008.7mb 51f
5:54  -  1 mph 1008.7mb 51f
5:48  -  1 mph 1008.7mb 51f
5:42  -  1 mph 1008.8mb 50f
5:36 1 2 mph 1008.8mb 50f
5:30 2 3 mph 1008.6mb 50f
5:24 2 3 mph 1008.6mb 50f
5:18 1 3 mph 1008.7mb 49f
5:12 2 2 mph 1008.7mb 49f
5:06 2 3 mph 1008.6mb 49f
5:00 2 2 mph 1008.6mb 49f
4:54 2 3 mph 1008.5mb 49f
4:48 3 5 mph 1008.4mb 50f
4:42 3 3 mph 1008.5mb 49f
4:36 3 6 mph 1008.6mb 49f
4:30 6 6 mph 1008.5mb 49f
4:24 5 5 mph 1008.5mb 49f
4:18 2 2 mph 1008.7mb 49f
4:12  -  2 mph 1008.8mb 49f
4:06 2 5 mph 1008.8mb 49f
4:00 3 3 mph 1008.8mb 49f
3:54 2 2 mph 1008.9mb 49f
3:48 2 3 mph 1008.8mb 49f
3:42 1 2 mph 1008.8mb 49f
3:36 1 2 mph 1008.8mb 49f
3:30 1 1 mph 1008.8mb 49f
3:24 2 3 mph 1008.7mb 49f
3:18  -  1 mph 1008.7mb 48f
3:12  -  2 mph 1008.7mb 48f
3:06 1 2 mph 1008.6mb 48f
3:00 1 1 mph 1008.6mb 48f
2:54 2 3 mph 1008.8mb 48f
2:48 3 5 mph 1008.6mb -
2:42 3 5 mph 1008.8mb -
2:36 3 5 mph 1009.1mb -
2:30 5 5 mph 1009.1mb 48f
2:24 1 2 mph 1009.1mb 48f
2:18  -  2 mph 1009.1mb 49f
2:12 2 2 mph 1009mb 49f
2:06 2 2 mph 1009mb 48f
2:00 2 2 mph 1009mb 48f
1:54 1 2 mph 1008.9mb 49f
1:48 1 2 mph 1008.9mb 49f
1:42  -  1 mph 1009mb 49f
1:36  -  2 mph 1009.2mb 49f
1:30 2 3 mph 1009.2mb 49f
1:24 1 3 mph 1009.1mb 49f
1:18 2 2 mph 1009.1mb 49f
1:12 2 3 mph 1009.2mb 48f